sat.trackr.live / text

‹ back to catalog

STARLINK-5333

NORAD 56507 · 2023-065E

PAYLOAD ACTIVE UNKNOWN

§ Identity

Operator
Country
US
Launch date
2023-05-14
Launch site
AFETR
Launch vehicle
Mass (kg)
RCS (m²)

Purposes: comms

External: N2YO · Heavens-Above · Gunter

§ Orbital elements

Epoch: 2026-05-24T21:57:30.554208Z

Period
94.27 min
Inclination
43.0029°
Eccentricity
0.0001221
Mean motion
15.27578371 rev/d
Perigee alt
482.2 km
Apogee alt
483.9 km
Semi-major
6,861.2 km
B*
2.4012e-5
RAAN
109.2430°
Arg perigee
261.7458°
Mean anomaly
98.3255°
Rev number
16,863

§ Raw data

STARLINK-53331 56507U 23065E   26144.91493697  .00000399  00000+0  24012-4 0  99972 56507  43.0029 109.2430 0001221 261.7458  98.3255 15.27578371168633

JSON: /api/v1/satellites/56507 · /tle

For live sub-satellite position, see the globe view (requires WebGL).

§ Visibility from observer

Set your observer location to see the next 7 days of passes ≥ 10°. The values pass through the URL so the page stays shareable.

No JS? Fill the form by hand. The geolocation button needs JavaScript.